Regional Weather Roundup
Issued by NWS

Home | Current Version | Previous Version | Text Only | Print | Product List | Glossary On
Versions: 1 2 3 4 5 6 7 8 9 10 11 12 13 14 15 16 17 18 19 20 21 22 23 24 25 26 27 28 29 30 31 32 33 34 35 36 37 38 39 40 41 42 43 44 45 46 47 48 49 50
000
ASUS43 KTOP 292308
RWRKS

WEATHER ROUNDUP FOR KANSAS
NATIONAL WEATHER SERVICE GOODLAND KS
600 PM CDT SAT AUG 29 2015

NOTE:  "FAIR" INDICATES FEW OR NO CLOUDS BELOW 12,000 FEET WITH NO
SIGNIFICANT WEATHER AND/OR OBSTRUCTIONS TO VISIBILITY.

KSZ001>006-013>018-027>032-041>047-300000-
NORTHWEST KANSAS

CITY           SKY/WX    TMP DP  RH WIND       PRES   REMARKS
GOODLAND       SUNNY     89  38  16 S9        30.10F
HAYS           SUNNY     88  52  29 E10       30.04S
HILL CITY      SUNNY     89  56  32 E8        30.05S
RUSSELL        SUNNY     83  59  44 E9        30.02F
$$

KSZ061>065-074>080-084>089-300000-
SOUTHWEST KANSAS

CITY           SKY/WX    TMP DP  RH WIND       PRES   REMARKS
DODGE CITY     SUNNY     84  53  34 NE9       30.07F
ELKHART          N/A     88  54  31 E7          N/A
GARDEN CITY    SUNNY     88  47  24 NE7       30.07F
GREAT BEND     SUNNY     84  55  37 NE9       30.02S
LIBERAL        SUNNY     88  46  23 NE9       30.09F
PRATT          SUNNY     82  55  39 NE8       30.03F
$$

KSZ066>073-081>083-090>101-300000-
SOUTHEAST KANSAS

CITY           SKY/WX    TMP DP  RH WIND       PRES   REMARKS
CHANUTE        MOSUNNY   80  64  58 NW6       29.99S
COFFEYVILLE    SUNNY     81  67  62 NW7       29.97S
HUTCHINSON     SUNNY     78  63  59 E10       30.02F
MEDICINE LODGE   N/A     84  63  49 NE9       29.99F
NEWTON         CLOUDY    70  57  64 NE9       30.06S
PARSONS        MOSUNNY   81  68  64 NW8       29.99S
WICHITA INTL   PTSUNNY   74  60  61 N10       30.02F
WICHITA JABRA  MOSUNNY   72  62  71 NE9       30.02F
WICHITA MCCONL PTSUNNY   73  60  63 NE9       30.02S
$$

KSZ007>012-019>026-033>040-048>060-102>105-300000-
NORTHEAST KANSAS

CITY           SKY/WX    TMP DP  RH WIND       PRES   REMARKS
CONCORDIA      SUNNY     75  64  68 VRB3      30.03F
EMPORIA        CLOUDY    72  63  73 NE5       30.02F
LAWRENCE       CLOUDY    76  66  71 N5        30.01S
MANHATTAN      CLOUDY    73  64  73 N6        30.02S
MARYSVILLE     SUNNY    N/A N/A N/A CALM      30.03F
OLATHE IND     CLOUDY    74  67  78 N6        30.01S
OLATHE EXE     CLOUDY    75  67  76 N5        30.00S
SALINA         MOSUNNY   75  63  66 E8        30.03F
TOPEKA BILLARD CLOUDY    75  66  73 N5        30.01S
TOPEKA FORBES  CLOUDY    75  65  70 N3        30.02S
$$



USA.gov is the U.S. government's official web portal to all federal, state and local government web resources and services.